Theta_e
316 318 319 320 319 320 320 320 321 321 316 316 319 319 319 316 313 314 315 313 310 307 307 307 307 308 309 312 316 318 321 322 323 323 323 324 323 322 321 319 319 318 316 316
316 318 319 319 318 319 318 319 320 321 316 315 317 318 318 318 316 315 315 314 310 306 304 305 305 307 309 314 318 319 320 320 320 321 322 321 320 319 318 315 312 311 310 310
319 319 315 316 316 317 318 319 320 320 316 314 316 318 318 318 317 316 313 314 311 306 304 303 304 306 309 313 316 318 318 319 319 320 319 319 317 315 311 309 306 305 304 303
317 317 315 315 317 317 319 319 317 317 317 321 317 322 322 321 317 313 311 310 308 306 304 302 303 306 309 311 316 317 317 318 319 319 318 315 312 306 305 303 303 302 301 300
318 314 314 316 317 316 318 315 316 317 318 319 320 319 322 322 321 316 311 309 307 305 303 301 301 304 309 311 313 314 316 316 316 315 313 307 304 303 303 302 301 300 298 297
316 311 314 316 312 314 313 315 315 315 318 322 321 322 323 321 317 318 312 308 307 304 302 301 302 304 306 308 310 310 310 310 308 306 304 303 303 303 302 300 298 297 296 295
317 316 313 312 314 311 314 318 324 323 321 324 316 321 322 319 313 314 311 308 305 303 301 300 303 303 304 304 305 305 305 304 303 302 302 301 301 300 299 298 297 296 295 294
323 323 318 313 318 318 315 319 325 328 327 324 311 318 319 316 311 308 311 307 304 302 301 300 302 302 302 302 302 302 302 302 301 301 300 300 299 298 297 296 295 294 294 294
322 323 315 313 314 318 315 317 318 319 312 320 320 317 317 309 308 307 308 306 304 302 300 300 300 301 301 300 301 301 301 301 301 300 299 299 298 296 295 295 294 294 293 292
321 322 314 311 310 312 314 315 316 317 326 326 322 321 321 313 311 308 307 306 304 302 301 300 300 301 300 300 300 300 300 300 300 299 298 297 296 295 293 293 293 292 291 291
318 319 315 310 313 316 313 315 315 317 319 325 325 323 319 319 315 311 307 306 305 303 301 300 301 301 300 299 299 300 299 299 299 298 297 295 294 293 293 292 292 291 290 290
317 319 323 317 313 313 315 316 316 320 319 317 320 322 311 317 316 311 309 307 306 303 302 301 300 300 299 298 298 298 298 298 297 296 295 294 293 292 292 291 290 290 290 289
315 318 324 322 314 310 312 313 314 315 316 322 323 322 310 309 312 311 310 307 306 304 303 301 300 300 299 298 298 297 297 297 295 295 294 294 293 291 291 290 290 289 289 289
314 318 322 325 323 318 315 313 313 315 318 319 321 320 311 310 310 309 309 307 306 304 304 302 301 300 300 298 297 297 296 296 295 295 294 293 292 291 290 289 289 289 289 288
314 319 320 320 320 320 318 316 314 314 316 319 320 319 319 312 311 310 308 308 306 304 303 303 301 300 299 298 297 297 297 297 296 295 294 294 291 290 289 289 289 288 288 288
311 316 317 318 318 319 319 317 316 314 314 316 317 319 318 312 311 311 309 308 306 305 305 304 302 300 300 298 299 300 299 298 298 297 296 294 291 290 289 288 288 288 288 288
312 313 316 319 317 317 315 316 316 316 314 315 317 316 312 313 310 309 309 307 307 306 305 303 302 302 301 301 301 301 300 299 299 298 297 294 292 291 289 288 288 288 288 288
313 312 314 319 316 320 318 317 315 316 316 314 314 311 311 310 309 309 309 308 307 305 304 303 303 302 302 302 302 301 300 299 298 297 296 295 292 291 289 288 288 288 288 287
312 314 316 318 318 319 317 304 311 315 316 314 313 309 304 305 306 305 306 307 306 305 304 304 303 303 302 301 299 298 296 294 294 294 294 295 293 291 290 289 288 288 287 287
303 312 314 311 319 322 314 306 304 310 316 309 310 307 301 301 308 311 305 304 304 304 303 303 301 300 299 297 295 293 293 292 292 293 294 294 292 291 290 289 289 288 287 286
307 311 314 316 317 314 306 298 304 314 316 302 307 303 300 304 306 304 303 302 301 299 298 297 297 296 294 293 293 292 292 292 292 292 291 290 290 289 288 288 288 288 287 286
310 311 312 313 316 317 297 297 308 304 297 301 305 306 304 301 302 300 298 298 297 296 296 294 293 293 293 292 291 291 291 291 291 290 289 289 288 289 289 288 288 287 287 286
308 309 312 311 311 295 296 296 302 299 300 300 301 303 303 301 300 297 296 296 295 293 293 292 292 292 292 291 291 291 291 291 290 290 289 289 289 289 289 288 288 287 286 286
298 296 304 305 297 297 295 298 300 303 301 298 298 299 299 299 296 295 294 293 293 292 292 292 291 291 292 291 291 291 291 290 290 290 289 289 289 289 288 288 288 287 286 286
298 297 299 295 293 292 295 299 300 299 299 297 296 296 296 295 295 295 294 293 293 293 292 292 291 291 291 291 291 290 290 290 290 290 290 289 289 289 288 288 287 287 286 285
294 295 297 300 295 299 297 299 300 300 298 296 294 295 295 295 295 294 294 293 293 292 292 291 291 291 291 291 291 290 290 290 289 289 289 289 289 288 287 287 286 286 285 284
Wind_Speed
10 9 13 17 16 17 8 9 13 9 3 4 13 15 14 16 17 19 20 16 13 11 10 8 8 9 9 9 10 13 14 18 17 17 15 16 14 14 12 9 7 3 3 2
5 15 17 10 9 12 12 13 16 14 3 4 12 17 16 19 21 25 23 20 17 13 10 10 10 11 12 13 14 16 18 19 19 18 16 15 15 13 10 10 9 8 8 7
17 3 5 9 8 11 14 15 15 14 2 11 13 20 24 25 27 25 16 17 17 16 13 11 12 13 15 17 17 18 18 18 17 15 15 15 15 16 15 14 13 12 10 9
13 10 6 9 14 13 15 13 13 12 7 10 4 9 9 7 13 14 16 17 18 17 14 13 14 14 16 18 20 20 19 19 18 18 17 18 18 20 19 16 13 11 8 6
5 9 12 13 16 10 8 2 6 9 11 13 16 8 11 16 17 16 17 20 20 18 17 15 15 16 19 20 22 21 20 21 20 19 19 19 19 18 16 13 9 7 6 4
8 2 6 6 4 6 9 5 3 3 6 9 17 16 9 10 8 12 18 20 22 21 19 17 19 21 22 22 23 24 24 23 21 20 18 16 14 12 12 11 10 7 4 3
13 14 6 5 6 3 12 8 4 5 6 8 2 12 15 6 7 6 18 24 24 24 22 22 24 24 23 24 25 25 24 23 22 19 16 14 12 10 10 10 8 6 4 2
12 9 22 16 20 9 20 16 6 6 6 4 2 8 6 3 9 6 14 22 23 22 21 22 25 25 27 27 27 26 25 22 20 17 15 13 11 12 12 10 8 6 2 1
13 9 7 9 5 14 7 12 10 4 2 4 7 10 8 7 8 10 15 22 25 25 25 25 26 27 28 28 27 26 24 22 19 17 15 13 12 12 12 10 7 5 3 2
5 5 6 5 4 5 9 9 5 6 5 8 10 14 10 9 15 15 16 23 25 25 25 26 29 30 31 30 29 28 24 21 19 18 16 15 14 14 13 10 8 6 5 4
9 6 6 7 13 18 8 9 9 5 8 5 6 9 9 15 16 19 20 25 28 29 30 30 31 31 32 33 33 30 27 25 23 20 18 17 15 14 13 12 10 8 7 7
12 3 9 13 2 10 16 14 20 7 6 5 6 14 3 5 12 20 24 26 28 31 31 32 31 33 35 35 35 33 29 27 24 21 19 17 16 16 16 14 12 11 10 8
13 6 3 6 3 1 9 16 13 18 1 16 8 7 4 4 7 15 19 23 26 29 29 30 31 36 37 37 36 34 32 30 26 23 21 20 20 20 18 16 16 14 13 11
21 7 14 19 10 9 10 15 21 19 12 18 27 17 8 11 13 16 18 22 24 29 31 31 33 36 38 37 37 35 32 31 27 25 23 23 22 22 20 20 19 18 16 14
11 13 17 24 22 17 11 18 23 28 35 16 27 25 16 16 16 23 24 20 20 23 28 34 36 36 34 35 35 33 32 32 28 27 25 25 23 24 25 23 22 21 20 18
2 11 17 25 23 22 25 20 25 30 31 30 30 29 10 24 23 17 20 22 23 27 32 35 35 34 34 31 35 34 33 31 30 28 26 26 26 27 27 25 24 24 23 22
11 7 8 17 15 18 6 39 23 27 30 26 28 29 5 10 13 21 22 22 28 31 32 32 34 38 37 34 32 30 29 31 30 28 27 28 28 28 27 26 27 27 26 26
14 16 9 11 3 13 22 17 24 33 29 25 23 3 12 14 21 21 20 27 27 25 27 30 29 30 30 27 26 25 27 27 26 24 27 28 29 27 27 28 29 29 29 29
16 13 7 7 14 11 15 5 10 14 27 23 20 8 8 14 12 9 19 22 22 24 23 22 23 23 23 23 23 23 22 21 19 22 23 24 26 28 29 30 30 30 31 31
3 15 13 4 8 11 6 5 5 7 14 7 14 11 11 16 9 9 23 22 21 19 18 19 20 21 21 22 20 19 17 17 19 19 18 19 22 25 28 28 30 31 32 33
6 9 18 18 9 4 2 5 8 9 3 2 16 19 18 6 4 10 16 19 18 19 20 20 19 20 19 18 17 18 19 20 17 15 16 19 21 23 24 25 28 30 32 32
11 10 6 8 6 11 8 5 7 1 4 11 14 17 20 12 11 10 15 19 21 21 21 20 19 19 18 18 18 20 21 18 17 17 19 21 21 21 21 23 26 28 30 30
4 2 3 5 1 3 8 6 8 7 8 6 10 15 17 18 14 15 19 22 23 21 19 17 16 17 21 18 17 22 22 22 20 19 21 23 24 25 25 24 25 27 29 30
2 0 1 2 2 1 6 11 16 10 11 10 14 16 19 21 20 21 22 23 22 19 15 12 14 18 23 22 20 21 25 26 24 23 24 26 27 29 29 27 28 30 31 32
2 8 5 4 2 5 10 12 19 17 14 12 15 17 19 19 19 21 23 22 19 15 13 14 15 20 24 25 23 24 28 32 31 29 28 29 32 32 32 30 30 31 32 32
5 5 4 2 15 8 17 23 23 24 22 17 18 18 18 18 17 19 23 21 19 18 17 16 18 20 24 27 27 27 30 32 35 36 35 34 34 34 33 32 31 32 32 32
Wind_Direction
204 217 220 224 228 255 293 285 275 276 110 272 254 262 260 194 215 222 217 212 208 203 212 207 202 195 187 178 155 145 142 143 147 150 155 155 162 165 155 146 146 171 170 148
188 231 240 240 274 240 244 259 262 271 142 253 273 264 260 251 212 224 221 216 212 200 193 195 190 183 177 169 156 154 152 151 154 161 167 169 159 151 150 144 142 131 116 115
227 217 250 196 205 221 234 243 260 272 169 234 276 269 250 244 244 227 235 234 209 200 185 187 185 180 174 173 167 160 161 166 171 171 164 163 155 147 143 138 134 124 115 101
240 228 160 204 227 220 248 231 255 266 262 270 167 282 262 230 210 217 223 213 198 191 183 177 180 174 172 172 171 171 173 172 167 165 165 159 156 148 142 139 132 122 108 94
197 188 204 220 231 210 260 48 237 251 258 274 253 267 267 241 225 211 208 205 201 191 182 173 171 174 169 166 168 170 168 165 164 164 162 155 153 148 145 142 138 132 119 96
256 40 208 221 68 214 128 113 110 224 251 252 234 226 256 208 228 234 180 192 188 186 179 173 175 171 171 169 167 166 165 163 161 160 158 157 162 163 161 156 156 146 126 92
220 223 176 176 147 154 200 176 239 237 212 250 109 216 248 184 148 183 180 183 184 183 178 176 176 173 172 171 172 170 167 165 163 166 167 169 172 174 172 167 164 155 138 91
210 225 199 199 211 188 197 200 207 249 228 255 71 230 236 249 116 128 182 180 179 182 182 181 180 180 180 177 174 171 171 172 174 176 179 182 186 190 190 181 173 172 153 53
204 230 168 183 206 202 179 222 255 284 187 272 217 243 263 160 176 169 167 175 182 186 186 185 186 189 188 186 183 182 182 183 184 187 193 199 203 204 198 192 191 200 198 239
219 233 179 150 158 237 217 162 179 218 229 240 249 249 237 212 202 182 178 185 187 189 188 188 192 194 195 194 193 193 193 196 197 200 207 208 208 205 203 202 209 218 232 255
207 232 133 153 203 188 182 208 224 249 228 249 266 250 191 204 197 189 187 188 188 190 191 192 196 199 200 201 201 201 202 204 205 210 216 215 211 212 212 218 221 227 236 247
201 246 229 218 94 262 238 218 207 219 190 244 270 260 147 185 183 179 188 187 189 193 191 195 199 202 205 206 206 207 209 214 214 216 218 218 219 220 223 226 228 233 239 247
167 216 237 252 187 182 224 221 233 230 9 228 222 247 145 170 174 181 175 181 186 188 189 193 199 206 209 210 211 211 215 218 219 221 222 225 224 225 227 231 234 234 237 245
170 165 205 232 229 169 206 213 211 216 226 235 235 247 186 197 190 185 184 180 183 188 193 197 201 207 212 213 214 213 217 221 223 226 226 228 229 229 232 234 234 236 239 245
193 223 225 240 251 264 225 212 206 212 228 221 248 236 221 196 195 194 188 180 179 190 196 203 205 205 209 212 216 216 220 225 230 231 230 235 233 233 234 236 237 240 243 249
229 236 232 252 241 245 246 237 219 218 228 234 246 251 239 191 200 194 187 183 190 202 211 211 207 205 204 209 217 221 223 230 235 238 240 238 236 236 238 241 243 246 248 255
173 217 202 244 229 245 279 236 225 229 223 222 231 241 143 178 192 195 192 195 206 213 209 208 212 214 216 216 223 225 229 235 240 244 243 241 241 242 242 244 247 251 256 260
197 199 214 248 143 225 241 242 229 234 238 226 241 131 176 183 192 209 208 221 221 214 212 215 216 216 219 219 228 228 230 236 242 245 245 243 241 243 243 246 251 255 260 264
208 199 219 219 223 267 257 200 194 192 239 230 227 134 132 132 163 220 214 219 221 220 215 208 207 211 216 218 220 221 223 231 240 246 248 243 240 243 246 250 256 261 263 265
217 215 206 162 224 227 285 145 166 140 247 191 172 163 152 145 210 216 203 197 193 196 205 208 207 209 210 208 212 220 229 238 244 247 247 242 242 246 251 258 262 263 264 265
175 199 217 222 236 253 130 156 158 167 265 60 158 156 148 178 203 152 175 184 193 199 201 198 197 201 209 215 222 232 234 233 236 235 240 243 247 251 256 259 260 261 262 263
176 176 196 225 235 240 149 118 183 309 93 126 155 172 191 176 173 170 176 185 186 182 184 192 200 208 213 221 228 229 227 225 229 244 246 246 248 251 258 263 263 261 259 260
211 259 176 214 222 6 119 92 123 97 111 163 189 195 197 194 189 185 182 177 180 187 193 202 213 219 219 224 234 233 231 229 240 245 247 247 249 252 258 264 264 258 258 260
234 108 118 164 49 37 113 139 166 183 213 216 202 200 201 199 190 184 182 185 188 191 197 211 223 226 228 227 237 240 237 240 245 248 250 252 254 256 258 259 262 259 259 261
62 144 131 71 126 123 190 180 192 214 239 242 214 210 199 191 196 203 199 197 199 207 221 230 235 236 235 232 241 245 246 247 250 252 254 257 257 256 255 257 261 264 263 263
189 152 167 162 163 156 193 188 203 225 233 225 202 192 198 207 213 218 216 212 218 228 233 240 243 245 242 239 244 248 250 254 256 258 259 261 257 255 253 256 260 263 265 266